STARLINK-32388, 62144

Orbit data source: Space-Track

STARLINK-32388, 62144 is a payload satellite owned by SpaceX/Seattle (US) in LEO that was launched on Sat, 30 Nov 2024 UTC via an FALCON 9 launch vehicle from the Air Force Eastern Test Range (AFETR). Payload-class satellites include a variety of spacecraft equipped with specific instruments for various scientific and technological missions. These include communications satellites like Starlink; space stations such as the ISS; scientific satellites like the Hubble; Earth observation satellites from companies like Planet Labs, Umbra, and HawkEye 360; GPS; miniature CubeSats for education and research; and military/defense satellites.

Loading next visibility...
Identifier
62144, 2024-224F
Orbit
LEO
Country
Flag of USUS
Related business
Manufacturer
SpaceX/Seattle
Mission
Operational Commercial Communications
Bus & Motor
STARLINK V2M, Unknown motor
Mass
730 kg wet, ~700 kg dry
Launch date (UTC)
2024-11-30 (1 year ago)
Launch vehicle
FALCON 9
Launch site
Air Force Eastern Test Range (AFETR)
Object type
Payload
Rocket body
Debris
Shape & HBR
Box + 2 Pan, 17.7 m
Radar Cross Section
33.884 m², Large (>1 m²)

Expand to show TLE details & history
Last TLE update: 1 day ago

TLE from 1 day ago
0 STARLINK-32388
1 62144U 24224F   25348.23025502  .00042182  00000-0  15326-2 0  9998
2 62144  43.0031 288.2135 0001931 260.0743  99.9891 15.27601543 59323
Epoch: 2025-12-14T05:31Z
TLE epoch observation values (Epoch: 2025-12-14T05:31:34.033Z)
Latitude
-0.00001°
Longitude
122.17553°
Altitude
482.99 km
Speed
7.626 km/s
True Right ascension
19h 12m 51s
True Declination
0° 00' 00"
Sunlit
Object was in daylight at epoch
Visualization orbit readout
Latitude
Unknown
Longitude
Unknown
Altitude
Unknown
Speed
Unknown
Apparent Right ascension
Unknown
Apparent Declination
Unknown
Sunlit
N/A
Visualization observer readout
Local Sidereal Time
13:22:48
Azimuth
Unknown
Elevation
Unknown
Doppler factor
Unknown
Orbital elements
Apogee altitude
486.255 km
Perigee altitude
483.604 km
Semi-major axis
6,863.066 km
Eccentricity
0.00019
Inclination
43.0031°
RAAN
288.2135°
Arg. of periapsis
260.0743°
True anomaly
100.01089°
Mean anomaly
99.9891°
Eccentric anomaly
100°
Mean motion
3.81738 °/min
Orbital period
94.31 mins
BSTAR
0.0015326
Loading maneuver chart data...
Computing Atmospheric mass density...
Loading historical data...
Loading historical data...
Loading historical data...
Loading historical data...
Loading historical data...
Loading historical data...
Loading historical data...

Documentation

Showing up to 5 results
|